Home   Weather   Paris   Past weeks
Flag for France

Past Weather in Paris, Île-de-France, France — Yesterday and Last 2 Weeks

Now
50 °F

Passing clouds.


Feels Like: 47 °F
Forecast: 58 / 37 °F
Wind: 7 mph from North

Location: Villacoublay

Current Time: Mar 26, 2019 at 7:50:04 pm

Latest Report: Mar 26, 2019 at 7:00 pm


Visibility: N/A

Pressure: 30.45 "Hg

Humidity: 54%

Dew Point: 34 °F

Location of ParisLocation

Past Weather in Paris — Graph

°F

Paris Temperature Yesterday

Maximum temperature yesterday: 52 °F (at 1:00 pm)
Minimum temperature yesterday: 34 °F (at 6:00 am)
Average temperature yesterday: 45 °F

High & Low Weather Summary for the Past Weeks

 TemperatureHumidityPressure
High63 °F (Mar 22, 3:00 pm)100% (Mar 14, 6:00 pm)30.57 "Hg (Mar 14, 6:00 pm)
Low34 °F (Mar 19, 4:30 am)32% (Mar 22, 3:00 pm)29.62 "Hg (Mar 17, 4:00 am)
Average47 °F75%30.21 "Hg
* Reported Mar 11 6:00 pm — Mar 26 6:30 pm, Paris. Weather by CustomWeather, © 2019

Note: Actual official high and low records may vary slightly from our data, if they occured in-between our weather recording intervals... More about our weather records

Advertising

Paris Weather History for the Previous 24 Hours

Scroll right to see more
 ConditionsComfort  
Time TempWeatherWind HumidityBarometerVisibility
6:30 pm
Tue, Mar 26
50 °FPassing clouds.8 mph50%30.45 "HgN/A
6:00 pm52 °FPassing clouds.8 mph47%30.45 "HgN/A
5:30 pm52 °FPassing clouds.10 mph47%30.45 "HgN/A
5:00 pm54 °FPassing clouds.9 mph44%30.45 "HgN/A
4:30 pm52 °FPassing clouds.12 mph47%30.45 "HgN/A
4:00 pm54 °FPassing clouds.10 mph41%30.48 "HgN/A
3:30 pm52 °FPassing clouds.12 mph47%30.48 "HgN/A
3:00 pm54 °FPassing clouds.9 mph47%30.48 "HgN/A
2:30 pm52 °FPassing clouds.9 mph47%30.48 "HgN/A
2:00 pm52 °FPassing clouds.10 mph47%30.48 "HgN/A
1:00 pm50 °FPassing clouds.7 mph54%30.51 "HgN/A
12:30 pm50 °FPassing clouds.6 mph54%30.51 "HgN/A
12:00 pm48 °FScattered clouds.6 mph58%30.51 "HgN/A
11:30 am48 °FPassing clouds.6 mph58%30.51 "HgN/A
11:00 am46 °FPassing clouds.8 mph62%30.51 "HgN/A
10:30 am46 °FScattered clouds.9 mph62%30.54 "HgN/A
10:00 am46 °FPartly sunny.8 mph62%30.54 "HgN/A
9:30 am45 °FScattered clouds.9 mph61%30.51 "HgN/A
9:00 am43 °FPartly sunny.10 mph66%30.51 "HgN/A
8:30 am43 °FPartly sunny.5 mph71%30.51 "HgN/A
8:00 am41 °FPartly sunny.6 mph70%30.51 "HgN/A
7:30 am41 °FPartly sunny.6 mph70%30.51 "HgN/A
7:00 am43 °FOvercast.8 mph66%30.51 "HgN/A
6:30 am43 °FOvercast.7 mph66%30.51 "HgN/A
6:00 am43 °FOvercast.8 mph66%30.48 "HgN/A
5:30 am43 °FOvercast.8 mph66%30.48 "HgN/A
5:00 am41 °FOvercast.5 mph70%30.48 "HgN/A
4:30 am41 °FPassing clouds.6 mph70%30.48 "HgN/A
4:00 am41 °FPassing clouds.7 mph70%30.48 "HgN/A
3:30 am41 °FPassing clouds.8 mph70%30.48 "HgN/A
3:00 am43 °FPassing clouds.8 mph66%30.48 "HgN/A
2:30 am43 °FPassing clouds.8 mph66%30.48 "HgN/A
2:00 am43 °FPassing clouds.8 mph66%30.48 "HgN/A
1:30 am43 °FPassing clouds.10 mph66%30.48 "HgN/A
1:00 am43 °FPassing clouds.12 mph66%30.48 "HgN/A
12:30 am45 °FOvercast.14 mph61%30.48 "HgN/A
12:00 am45 °FOvercast.13 mph61%30.48 "HgN/A
11:30 pm
Mon, Mar 25
45 °FOvercast.14 mph61%30.48 "HgN/A
11:00 pm45 °FOvercast.13 mph61%30.48 "HgN/A
10:30 pm45 °FOvercast.12 mph66%30.48 "HgN/A
10:00 pm45 °FPassing clouds.9 mph61%30.48 "HgN/A
9:30 pm46 °FPartly cloudy.10 mph62%30.45 "HgN/A
9:00 pm46 °FPartly cloudy.7 mph62%30.45 "HgN/A
8:30 pm46 °FPassing clouds.9 mph57%30.45 "HgN/A
8:00 pm46 °FPassing clouds.13 mph53%30.45 "HgN/A
7:30 pm46 °FPassing clouds.10 mph53%30.42 "HgN/A
7:00 pm48 °FPassing clouds.9 mph50%30.42 "HgN/A
Weather by CustomWeather, © 2019

See weather overview